This is the latest recevied weather packets stored in our database for station/object KD5UMO-1. If no packets are shown the sender has not sent any weather packets the latest 10 day(s).
| Time | Temp. | Humidity | Pressure | Rain* | Wind** | Luminosity | Snow |
|---|---|---|---|---|---|---|---|
| 1777149749 | 30.56° C | 63% | 1005.3 hPa | 0 mm | - | 518 W/m² | - |
| 1777149446 | 30° C | 64% | 1005.6 hPa | 0 mm | - | 717 W/m² | - |
| 1777149142 | 30.56° C | 63% | 1005.5 hPa | 0 mm | - | 276 W/m² | - |
| 1777148841 | 30.56° C | 62% | 1005.8 hPa | 0 mm | - | 684 W/m² | - |
| 1777148539 | 31.11° C | 62% | 1005.6 hPa | 0 mm | - | 793 W/m² | - |
| 1777148234 | 30° C | 64% | 1005.7 hPa | 0 mm | - | 826 W/m² | - |
| 1777147931 | 30.56° C | 63% | 1005.7 hPa | 0 mm | - | 457 W/m² | - |
| 1777147627 | 30.56° C | 64% | 1005.8 hPa | 0 mm | - | 641 W/m² | - |
| 1777147322 | 30.56° C | 65% | 1005.8 hPa | 0 mm | - | 708 W/m² | - |
| 1777147019 | 30.56° C | 63% | 1005.9 hPa | 0 mm | - | 530 W/m² | - |
| 1777146715 | 30.56° C | 63% | 1005.8 hPa | 0 mm | - | 839 W/m² | - |
| 1777146414 | 30.56° C | 64% | 1005.9 hPa | 0 mm | - | 857 W/m² | - |
| 1777146113 | 31.11° C | 64% | 1005.7 hPa | 0 mm | - | 834 W/m² | - |
| 1777145813 | 30.56° C | 65% | 1005.9 hPa | 0 mm | - | 750 W/m² | - |
| 1777145509 | 31.11° C | 62% | 1005.9 hPa | 0 mm | - | 705 W/m² | - |
| 1777145205 | 31.11° C | 64% | 1006.2 hPa | 0 mm | - | 396 W/m² | - |
| 1777144900 | 30.56° C | 65% | 1006.1 hPa | 0 mm | - | 859 W/m² | - |
| 1777144599 | 30.56° C | 64% | 1006.2 hPa | 0 mm | - | 404 W/m² | - |
| 1777144295 | 30.56° C | 65% | 1006.2 hPa | 0 mm | - | 489 W/m² | - |
| 1777143992 | 30.56° C | 65% | 1006.1 hPa | 0 mm | - | 468 W/m² | - |
| 1777143687 | 30° C | 65% | 1006.3 hPa | 0 mm | - | 775 W/m² | - |
| 1777143384 | 31.11° C | 63% | 1006.3 hPa | 0 mm | - | 1007 W/m² | - |
| 1777143080 | 30° C | 65% | 1006.4 hPa | 0 mm | - | 1038 W/m² | - |
| 1777142775 | 30° C | 65% | 1006.6 hPa | 0 mm | - | 553 W/m² | - |
| 1777142473 | 30° C | 65% | 1006.4 hPa | 0 mm | - | 1080 W/m² | - |
* Rain latest hour (hover to see other rain measurements)
** Current wind speed in m/s (hover to see current wind gust speed)